KJ4AJP Weather Reports


time (UTC)temp
C
wind
direction
speed
KPH
gust
KPH
rain 1hr
cm
rain 24hr
cm
rain mn
cm
humidity
%
barometer
mb
20260904022504 26 52 0.0 0.0 0.00 0.00 0.00 84 1014.6
20260904022001 27 52 0.0 0.0 0.00 0.00 0.00 84 1014.4
20260904021456 27 52 0.0 0.0 0.00 0.00 0.00 83 1014.5
20260904020956 27 52 0.0 0.0 0.00 0.00 0.00 82 1014.4
20260904020452 27 51 0.0 0.0 0.00 0.00 0.00 82 1014.4
20260904015950 27 51 0.0 0.0 0.00 0.00 0.00 82 1014.3
20260904015446 27 51 0.0 0.0 0.00 0.00 0.00 81 1014.2
20260904014944 27 51 0.0 0.0 0.00 0.00 0.00 81 1014.0
20260904014439 27 51 0.0 0.0 0.00 0.00 0.00 81 1014.1
20260904013935 27 51 0.0 0.0 0.00 0.00 0.00 81 1014.0
20260904013430 27 51 0.0 0.0 0.00 0.00 0.00 80 1014.0
20260904012927 27 51 0.0 0.0 0.00 0.00 0.00 79 1013.9
20260904012421 28 51 0.0 0.0 0.00 0.00 0.00 79 1014.0
20260904011915 28 51 0.0 0.0 0.00 0.00 0.00 78 1013.9
20260904011410 28 51 0.0 0.0 0.00 0.00 0.00 77 1013.9
20260904010905 28 51 0.0 0.0 0.00 0.00 0.00 76 1013.8
20260904010402 28 51 0.0 0.0 0.00 0.00 0.00 74 1013.8
20260904005856 28 51 0.0 0.0 0.00 0.00 0.00 75 1013.9
20260904005352 29 52 0.0 0.0 0.00 0.00 0.00 73 1013.8
20260904004847 29 52 0.0 0.0 0.00 0.00 0.00 72 1013.8
20260904004343 30 52 0.0 0.0 0.00 0.00 0.00 71 1013.7
20260904003843 30 52 0.0 0.0 0.00 0.00 0.00 71 1013.7
20260904003339 30 52 0.0 0.0 0.00 0.00 0.00 70 1013.8
20260904002834 30 52 0.0 0.0 0.00 0.00 0.00 70 1013.6
20260904002331 30 52 0.0 0.0 0.00 0.00 0.00 69 1013.7
20260904001830 30 52 0.0 1.6 0.00 0.00 0.00 68 1013.8
20260904001326 31 51 0.0 0.0 0.00 0.00 0.00 67 1013.8
20260904000821 31 52 0.0 0.0 0.00 0.00 0.00 69 1013.7
20260904000319 31 52 0.0 0.0 0.00 0.00 0.00 68 1013.8
20260903235814 31 51 0.0 0.0 0.00 0.00 0.00 67 1013.6
20260903235311 31 51 0.0 0.0 0.00 0.00 0.00 64 1013.6
20260903234809 32 51 0.0 0.0 0.00 0.00 0.00 64 1013.7
20260903234306 32 51 0.0 0.0 0.00 0.00 0.00 62 1013.4
20260903233801 32 51 0.0 0.0 0.00 0.00 0.00 62 1013.4
20260903233257 32 51 0.0 0.0 0.00 0.00 0.00 61 1013.4
20260903232756 33 51 0.0 0.0 0.00 0.00 0.00 58 1013.4
20260903232253 33 51 0.0 0.0 0.00 0.00 0.00 56 1013.4
20260903231751 33 52 0.0 0.0 0.00 0.00 0.00 61 1013.2
20260903231247 33 51 0.0 0.0 0.00 0.00 0.00 59 1013.2
20260903230743 33 51 0.0 0.0 0.00 0.00 0.00 58 1013.4
20260903230242 33 51 0.0 0.0 0.00 0.00 0.00 56 1013.3
20260903225739 33 51 0.0 0.0 0.00 0.00 0.00 60 1013.3
20260903225235 33 51 0.0 0.0 0.00 0.00 0.00 56 1013.2
20260903224731 33 55 0.0 0.0 0.00 0.00 0.00 60 1013.1
20260903224227 33 55 0.0 0.0 0.00 0.00 0.00 56 1013.1
20260903223722 33 55 0.0 0.0 0.00 0.00 0.00 56 1013.1
20260903223221 33 56 0.0 0.0 0.00 0.00 0.00 57 1013.2
20260903222715 33 57 0.0 1.6 0.00 0.00 0.00 56 1013.3
20260903222215 33 52 0.0 0.0 0.00 0.00 0.00 56 1013.4
20260903221715 33 61 0.0 0.0 0.00 0.00 0.00 58 1013.3
20260903221214 33 61 0.0 0.0 0.00 0.00 0.00 54 1013.2
20260903220712 33 61 0.0 0.0 0.00 0.00 0.00 59 1013.3
20260903220207 33 61 0.0 0.0 0.00 0.00 0.00 59 1013.3
20260903215706 33 63 0.0 0.0 0.00 0.00 0.00 55 1013.0
20260903215201 33 64 0.0 0.0 0.00 0.00 0.00 54 1013.2
20260903214659 34 57 0.0 0.0 0.00 0.00 0.00 51 1013.2
20260903214155 34 56 0.0 1.6 0.00 0.00 0.00 54 1013.2
20260903213650 35 67 0.0 1.6 0.00 0.00 0.00 56 1013.3
20260903213146 35 63 0.0 0.0 0.00 0.00 0.00 53 1013.4
20260903212642 35 47 0.0 0.0 0.00 0.00 0.00 52 1013.4
20260903212137 35 52 0.0 0.0 0.00 0.00 0.00 55 1013.3
20260903211632 35 49 0.0 0.0 0.00 0.00 0.00 52 1013.4
20260903211129 35 62 0.0 1.6 0.00 0.00 0.00 50 1013.3
20260903210624 36 73 1.6 1.6 0.00 0.00 0.00 49 1013.5
20260903210120 37 58 0.0 0.0 0.00 0.00 0.00 45 1013.6
20260903205619 37 55 0.0 0.0 0.00 0.00 0.00 44 1013.7
20260903205118 37 56 0.0 0.0 0.00 0.00 0.00 46 1013.6
20260903204614 36 89 3.2 3.2 0.00 0.00 0.00 47 1013.6
20260903204110 35 48 0.0 1.6 0.00 0.00 0.00 49 1013.7
20260903203606 35 46 0.0 1.6 0.00 0.00 0.00 49 1013.6
20260903203106 35 54 0.0 0.0 0.00 0.00 0.00 49 1013.7
20260903202601 35 47 0.0 1.6 0.00 0.00 0.00 50 1014.0
20260903202056 35 54 0.0 1.6 0.00 0.00 0.00 50 1013.9
20260903201551 35 53 0.0 0.0 0.00 0.00 0.00 48 1013.9
20260903201050 36 51 0.0 1.6 0.00 0.00 0.00 48 1013.9
20260903200545 36 46 1.6 1.6 0.00 0.00 0.00 48 1014.0
20260903200040 36 58 0.0 0.0 0.00 0.00 0.00 46 1014.0
20260903195536 37 55 0.0 0.0 0.00 0.00 0.00 44 1014.1
20260903195031 37 66 0.0 0.0 0.00 0.00 0.00 42 1014.3
20260903194521 37 56 3.2 4.8 0.00 0.00 0.00 43 1014.2
20260903194017 37 107 3.2 3.2 0.00 0.00 0.00 45 1014.3
20260903193513 37 75 0.0 1.6 0.00 0.00 0.00 43 1014.3
20260903193008 38 31 1.6 3.2 0.00 0.00 0.00 41 1014.4
20260903192505 38 139 4.8 9.7 0.00 0.00 0.00 41 1014.4
20260903192004 38 56 3.2 4.8 0.00 0.00 0.00 41 1014.7
20260903191455 38 56 0.0 1.6 0.00 0.00 0.00 42 1014.5
20260903190954 38 65 3.2 3.2 0.00 0.00 0.00 45 1014.7
20260903190449 38 52 1.6 1.6 0.00 0.00 0.00 41 1014.7
20260903185948 37 210 3.2 3.2 0.00 0.00 0.00 44 1014.7
20260903185444 37 63 1.6 3.2 0.00 0.00 0.00 47 1014.9
20260903184939 36 129 3.2 4.8 0.00 0.00 0.00 44 1015.0
20260903184436 35 31 0.0 1.6 0.00 0.00 0.00 48 1015.2
20260903183936 35 60 0.0 0.0 0.00 0.00 0.00 47 1015.1
20260903183430 35 63 0.0 1.6 0.00 0.00 0.00 48 1015.1
20260903182929 35 57 0.0 0.0 0.00 0.00 0.00 51 1015.2
20260903182428 35 85 1.6 1.6 0.00 0.00 0.00 49 1015.2
20260903181924 35 60 1.6 1.6 0.00 0.00 0.00 46 1015.3
20260903181419 36 136 1.6 1.6 0.00 0.00 0.00 46 1015.2
20260903180912 36 170 3.2 3.2 0.00 0.00 0.00 45 1015.3
20260903180407 37 44 1.6 1.6 0.00 0.00 0.00 45 1015.3
20260903175907 37 36 1.6 1.6 0.00 0.00 0.00 43 1015.6
20260903175407 37 32 1.6 1.6 0.00 0.00 0.00 46 1015.5
20260903174901 37 64 0.0 1.6 0.00 0.00 0.00 45 1015.4
20260903174356 36 95 1.6 1.6 0.00 0.00 0.00 45 1015.5
20260903173850 37 335 3.2 3.2 0.00 0.00 0.00 43 1015.7
20260903173345 37 52 0.0 0.0 0.00 0.00 0.00 44 1015.7
20260903172842 37 65 0.0 1.6 0.00 0.00 0.00 43 1015.7
20260903172336 38 116 3.2 4.8 0.00 0.00 0.00 40 1015.7
20260903171832 37 64 1.6 1.6 0.00 0.00 0.00 41 1015.7
20260903171327 36 31 1.6 1.6 0.00 0.00 0.00 44 1015.7
20260903170826 35 62 0.0 0.0 0.00 0.00 0.00 47 1015.8
20260903170321 35 61 1.6 1.6 0.00 0.00 0.00 48 1015.9
20260903165819 36 48 0.0 0.0 0.00 0.00 0.00 47 1015.7
20260903165314 36 76 1.6 1.6 0.00 0.00 0.00 44 1016.0
20260903164814 36 352 1.6 3.2 0.00 0.00 0.00 45 1016.1
20260903164310 36 210 4.8 4.8 0.00 0.00 0.00 44 1015.9
20260903163808 36 54 1.6 1.6 0.00 0.00 0.00 46 1016.1
20260903163306 36 69 1.6 1.6 0.00 0.00 0.00 48 1016.1
20260903162801 36 187 4.8 6.4 0.00 0.00 0.00 46 1016.1
20260903162257 36 306 6.4 6.4 0.00 0.00 0.00 45 1016.4
20260903161753 36 67 1.6 3.2 0.00 0.00 0.00 48 1016.4
20260903161248 36 70 1.6 1.6 0.00 0.00 0.00 52 1016.6
20260903160744 36 354 4.8 6.4 0.00 0.00 0.00 46 1016.5
20260903160243 36 61 0.0 0.0 0.00 0.00 0.00 47 1016.5
20260903155741 36 56 0.0 1.6 0.00 0.00 0.00 45 1016.6
20260903155236 36 76 0.0 1.6 0.00 0.00 0.00 48 1016.5
20260903154732 35 17 3.2 3.2 0.00 0.00 0.00 49 1016.3
20260903154228 35 74 1.6 1.6 0.00 0.00 0.00 51 1016.4
20260903153723 35 244 3.2 3.2 0.00 0.00 0.00 52 1016.5
20260903153219 35 306 4.8 4.8 0.00 0.00 0.00 50 1016.6
20260903152715 36 331 1.6 3.2 0.00 0.00 0.00 51 1016.6
20260903152211 35 67 0.0 1.6 0.00 0.00 0.00 51 1016.6
20260903151711 35 68 0.0 0.0 0.00 0.00 0.00 54 1016.6
20260903151206 35 17 1.6 1.6 0.00 0.00 0.00 54 1016.7
20260903150701 35 86 1.6 3.2 0.00 0.00 0.00 55 1016.5
20260903150156 35 46 0.0 0.0 0.00 0.00 0.00 55 1016.6
20260903145655 34 59 0.0 0.0 0.00 0.00 0.00 60 1016.6
20260903145150 34 32 1.6 1.6 0.00 0.00 0.00 59 1016.7
20260903144649 33 62 0.0 0.0 0.00 0.00 0.00 57 1016.6
20260903144145 33 65 0.0 0.0 0.00 0.00 0.00 58 1016.5
20260903143641 34 64 0.0 1.6 0.00 0.00 0.00 56 1016.5
20260903143137 34 80 1.6 1.6 0.00 0.00 0.00 55 1016.6
20260903142632 33 64 0.0 0.0 0.00 0.00 0.00 57 1016.5
20260903142129 32 64 0.0 0.0 0.00 0.00 0.00 61 1016.6
20260903141624 32 64 0.0 0.0 0.00 0.00 0.00 63 1016.5
20260903141119 31 39 1.6 1.6 0.00 0.00 0.00 62 1016.8
20260903140615 31 66 0.0 0.0 0.00 0.00 0.00 63 1016.6
20260903140110 31 55 1.6 1.6 0.00 0.00 0.00 66 1016.7
20260903135606 30 70 1.6 1.6 0.00 0.00 0.00 67 1016.9
20260903135101 30 31 1.6 1.6 0.00 0.00 0.00 69 1016.7
20260903134600 29 47 1.6 1.6 0.00 0.00 0.00 70 1016.8
20260903134056 29 357 3.2 3.2 0.00 0.00 0.00 71 1016.9
20260903133553 29 266 3.2 3.2 0.00 0.00 0.00 72 1017.0
20260903133049 29 37 0.0 0.0 0.00 0.00 0.00 73 1017.1
20260903132544 28 63 0.0 0.0 0.00 0.00 0.00 74 1016.9
20260903132039 28 68 0.0 0.0 0.00 0.00 0.00 74 1017.1
20260903131538 28 41 0.0 0.0 0.00 0.00 0.00 75 1016.8
20260903131037 28 54 0.0 0.0 0.00 0.00 0.00 75 1017.0
20260903130533 28 48 0.0 0.0 0.00 0.00 0.00 76 1016.9
20260903130033 27 48 0.0 0.0 0.00 0.00 0.00 78 1016.9
20260903125531 27 48 0.0 0.0 0.00 0.00 0.00 78 1016.8
20260903125026 27 48 0.0 0.0 0.00 0.00 0.00 82 1016.8
20260903124521 26 48 0.0 0.0 0.00 0.00 0.00 83 1016.8
20260903124021 25 48 0.0 0.0 0.00 0.00 0.00 88 1016.8
20260903123515 25 48 0.0 0.0 0.00 0.00 0.00 91 1016.7
20260903123013 23 48 0.0 0.0 0.00 0.00 0.00 94 1016.8
20260903122508 23 48 0.0 0.0 0.00 0.00 0.00 95 1016.8
20260903122007 23 48 0.0 0.0 0.00 0.00 0.00 95 1016.7
20260903121502 23 48 0.0 0.0 0.00 0.00 0.00 95 1016.7
20260903120958 23 48 0.0 0.0 0.00 0.00 0.00 95 1016.6
20260903120456 23 48 0.0 0.0 0.00 0.00 0.00 95 1016.7
20260903115956 22 48 0.0 0.0 0.00 0.00 0.00 96 1016.6
20260903115455 22 48 0.0 0.0 0.00 0.00 0.00 96 1016.5
20260903114956 22 48 0.0 0.0 0.00 0.00 0.00 96 1016.4
20260903114451 22 48 0.0 0.0 0.00 0.00 0.00 96 1016.3
20260903113947 22 48 0.0 0.0 0.00 0.00 0.00 96 1016.4
20260903113443 22 48 0.0 0.0 0.00 0.00 0.00 96 1016.3
20260903112938 22 48 0.0 0.0 0.00 0.00 0.00 96 1016.1
20260903112434 22 48 0.0 0.0 0.00 0.00 0.00 96 1016.1
20260903111933 22 48 0.0 0.0 0.00 0.00 0.00 95 1016.4
20260903111433 22 48 0.0 0.0 0.00 0.00 0.00 95 1016.3
20260903110929 22 48 0.0 0.0 0.00 0.00 0.00 95 1016.1
20260903110425 22 48 0.0 0.0 0.00 0.00 0.00 95 1016.3
20260903105919 22 48 0.0 0.0 0.00 0.00 0.00 96 1016.1
20260903105415 22 48 0.0 0.0 0.00 0.00 0.00 95 1016.4
20260903104914 22 48 0.0 0.0 0.00 0.00 0.00 95 1016.3
20260903104408 22 48 0.0 0.0 0.00 0.00 0.00 95 1015.9
20260903103906 22 48 0.0 0.0 0.00 0.00 0.00 95 1016.0
20260903103401 22 48 0.0 0.0 0.00 0.00 0.00 95 1015.9
20260903102856 22 48 0.0 0.0 0.00 0.00 0.00 95 1015.9
20260903102351 22 48 0.0 0.0 0.00 0.00 0.00 95 1016.0
20260903101850 23 48 0.0 0.0 0.00 0.00 0.00 95 1016.0
20260903101346 23 48 0.0 0.0 0.00 0.00 0.00 94 1015.8
20260903100841 23 48 0.0 0.0 0.00 0.00 0.00 94 1015.8
20260903100342 23 48 0.0 0.0 0.00 0.00 0.00 94 1015.7
20260903095839 23 48 0.0 0.0 0.00 0.00 0.00 94 1016.1
20260903095338 23 48 0.0 0.0 0.00 0.00 0.00 93 1015.9
20260903094834 23 48 0.0 0.0 0.00 0.00 0.00 92 1015.9
20260903094328 23 48 0.0 0.0 0.00 0.00 0.00 92 1015.8
20260903093824 23 48 0.0 0.0 0.00 0.00 0.00 92 1015.8
20260903093319 23 48 0.0 0.0 0.00 0.00 0.00 92 1015.7
20260903092814 23 48 0.0 0.0 0.00 0.00 0.00 92 1015.7
20260903092309 23 48 0.0 0.0 0.00 0.00 0.00 93 1015.4
20260903091807 23 48 0.0 0.0 0.00 0.00 0.00 93 1015.8
20260903091301 23 48 0.0 0.0 0.00 0.00 0.00 93 1015.7
20260903090757 23 48 0.0 0.0 0.00 0.00 0.00 93 1015.7
20260903090256 23 48 0.0 0.0 0.00 0.00 0.00 92 1015.6
20260903085755 23 48 0.0 0.0 0.00 0.00 0.00 92 1015.7
20260903085250 23 48 0.0 0.0 0.00 0.00 0.00 92 1015.7
20260903084748 23 48 0.0 0.0 0.00 0.00 0.00 92 1015.6
20260903084243 23 48 0.0 0.0 0.00 0.00 0.00 91 1015.7
20260903083738 23 48 0.0 0.0 0.00 0.00 0.00 91 1015.5
20260903083233 24 48 0.0 0.0 0.00 0.00 0.00 91 1015.6
20260903082732 24 48 0.0 0.0 0.00 0.00 0.00 90 1015.5
20260903082228 24 48 0.0 0.0 0.00 0.00 0.00 90 1015.6
20260903081727 24 48 0.0 0.0 0.00 0.00 0.00 90 1015.7
20260903081223 24 48 0.0 0.0 0.00 0.00 0.00 90 1015.5
20260903080719 24 48 0.0 0.0 0.00 0.00 0.00 90 1015.3
20260903080217 24 48 0.0 0.0 0.00 0.00 0.00 90 1015.4
20260903075716 24 48 0.0 0.0 0.00 0.00 0.00 90 1015.3
20260903075211 24 48 0.0 0.0 0.00 0.00 0.00 89 1015.3
20260903074710 24 48 0.0 0.0 0.00 0.00 0.00 90 1015.1
20260903074206 24 48 0.0 0.0 0.00 0.00 0.00 89 1015.3
20260903073701 24 48 0.0 0.0 0.00 0.00 0.00 89 1015.4
20260903073156 24 48 0.0 0.0 0.00 0.00 0.00 89 1015.4
20260903072652 25 48 0.0 0.0 0.00 0.00 0.00 89 1015.2
20260903072148 25 48 0.0 0.0 0.00 0.00 0.00 89 1015.5
20260903071644 25 48 0.0 0.0 0.00 0.00 0.00 88 1015.4
20260903071140 25 48 0.0 0.0 0.00 0.00 0.00 88 1015.4
20260903070639 25 48 0.0 0.0 0.00 0.00 0.00 88 1015.5
20260903070135 25 48 0.0 0.0 0.00 0.00 0.00 87 1015.5
20260903065635 25 48 0.0 0.0 0.00 0.00 0.00 87 1015.5
20260903065130 25 48 0.0 0.0 0.00 0.00 0.00 87 1015.8
20260903064629 25 48 0.0 0.0 0.00 0.00 0.00 87 1015.6
20260903064125 25 48 0.0 0.0 0.00 0.00 0.00 87 1015.5
20260903063620 25 48 0.0 0.0 0.00 0.00 0.00 87 1015.5
20260903063115 25 48 0.0 0.0 0.00 0.00 0.00 86 1015.5
20260903062611 25 48 0.0 0.0 0.00 0.00 0.00 86 1015.6
20260903062106 25 48 0.0 0.0 0.00 0.00 0.00 86 1015.6
20260903061601 25 48 0.0 0.0 0.00 0.00 0.00 86 1015.5
20260903061101 25 48 0.0 0.0 0.00 0.00 0.00 86 1015.6
20260903060600 25 47 0.0 0.0 0.00 0.00 0.00 85 1015.5
20260903060055 25 47 0.0 0.0 0.00 0.00 0.00 85 1015.5
20260903055553 25 47 0.0 0.0 0.00 0.00 0.00 84 1015.5
20260903055052 26 45 0.0 1.6 0.00 0.00 0.00 83 1015.7
20260903054547 26 51 0.0 0.0 0.00 0.00 0.00 82 1015.6
20260903054043 26 50 0.0 0.0 0.00 0.00 0.00 82 1015.6
20260903053538 26 51 0.0 0.0 0.00 0.00 0.00 81 1015.7
20260903053034 26 51 0.0 0.0 0.00 0.00 0.00 81 1015.6
20260903052530 26 51 0.0 0.0 0.00 0.00 0.00 81 1015.6
20260903052026 26 53 0.0 0.0 0.00 0.00 0.00 81 1015.7
20260903051520 26 54 0.0 0.0 0.00 0.00 0.00 80 1015.6
20260903051016 26 54 0.0 0.0 0.00 0.00 0.00 80 1015.7
20260903050515 26 55 0.0 0.0 0.00 0.00 0.00 80 1015.7
20260903050010 26 54 0.0 0.0 0.00 0.00 0.00 80 1015.7
20260903045510 26 57 0.0 0.0 0.00 0.00 0.00 79 1015.7
20260903045007 26 56 0.0 0.0 0.00 0.00 0.00 79 1015.5
20260903044502 27 56 0.0 0.0 0.00 0.00 0.00 79 1015.5
20260903043958 27 56 0.0 0.0 0.00 0.00 0.00 78 1015.7
20260903043453 27 57 0.0 0.0 0.00 0.00 0.00 78 1015.7
20260903042951 27 57 0.0 0.0 0.00 0.00 0.00 78 1015.3
20260903042447 27 60 0.0 0.0 0.00 0.00 0.00 77 1015.5
20260903041943 27 52 0.0 0.0 0.00 0.00 0.00 77 1015.5
20260903041439 27 57 0.0 0.0 0.00 0.00 0.00 78 1015.4
20260903040935 27 64 0.0 0.0 0.00 0.00 0.00 77 1015.5
20260903040433 27 65 0.0 0.0 0.00 0.00 0.00 77 1015.6
20260903035930 27 64 0.0 0.0 0.00 0.00 0.00 77 1015.6
20260903035426 27 61 0.0 0.0 0.00 0.00 0.00 77 1015.6
20260903034925 27 60 0.0 0.0 0.00 0.00 0.00 77 1015.5
20260903034421 27 60 0.0 0.0 0.00 0.00 0.00 77 1015.6
20260903033916 27 62 0.0 0.0 0.00 0.00 0.00 76 1015.6
20260903033411 27 52 0.0 0.0 0.00 0.00 0.00 76 1015.7
20260903032906 27 61 0.0 0.0 0.00 0.00 0.00 77 1015.6
20260903032402 27 61 0.0 0.0 0.00 0.00 0.00 77 1015.6
20260903031902 27 63 0.0 0.0 0.00 0.00 0.00 76 1015.6
20260903031401 27 63 0.0 0.0 0.00 0.00 0.00 76 1015.7
20260903030856 27 63 0.0 0.0 0.00 0.00 0.00 76 1015.4
20260903030353 27 62 0.0 0.0 0.00 0.00 0.00 75 1015.6
20260903025848 28 63 0.0 0.0 0.00 0.00 0.00 74 1015.7
20260903025343 28 63 0.0 0.0 0.00 0.00 0.00 74 1015.6
20260903024838 27 56 0.0 0.0 0.00 0.00 0.00 74 1015.6
20260903024338 27 58 0.0 0.0 0.00 0.00 0.00 75 1015.5
20260903023833 28 64 0.0 0.0 0.00 0.00 0.00 74 1015.5
20260903023329 28 64 0.0 0.0 0.00 0.00 0.00 73 1015.4